ISR173 LLBG-LYTV

Flight info

Callsign ISR173
Flight time N/A
Altitude 38000
Route SUVAS L53 ANIDE DCT SOTIX UL53 AKORO DCT KUGGI DCT DIMIS DCT RODON DCT KOFER
Aircraft A320/M-SDE2FGHIJ1LORVWY/S

Departure

Time 2026-05-06 08:02
Airport Ben Gurion International Airport (LLBG)

Arrival

Time N/A
Airport Tivat Airport (LYTV)
Time Latitude Longitude Altitude Speed Heading
2026-05-06 07:20 32.00422 34.87551 118 ft 0 kts 228°
2026-05-06 07:21 32.00424 34.87553 117 ft 0 kts 227°
2026-05-06 07:28 32.00424 34.87554 120 ft 0 kts 227°
2026-05-06 07:40 32.00425 34.87554 120 ft 0 kts 227°
2026-05-06 07:50 32.00428 34.87559 115 ft 4 kts 225°
2026-05-06 07:51 32.00450 34.87575 117 ft 4 kts 193°
2026-05-06 07:51 32.00471 34.87579 117 ft 2 kts 185°
2026-05-06 07:51 32.00495 34.87585 119 ft 4 kts 205°
2026-05-06 07:51 32.00498 34.87586 115 ft 0 kts 207°
2026-05-06 07:53 32.00507 34.87595 115 ft 3 kts 254°
2026-05-06 07:53 32.00512 34.87615 116 ft 3 kts 254°
2026-05-06 07:53 32.00517 34.87635 120 ft 3 kts 254°
2026-05-06 07:53 32.00522 34.87655 115 ft 2 kts 258°
2026-05-06 07:54 32.00519 34.87674 117 ft 2 kts 303°
2026-05-06 07:54 32.00510 34.87691 116 ft 2 kts 323°
2026-05-06 07:54 32.00495 34.87696 118 ft 2 kts 22°
2026-05-06 07:54 32.00479 34.87693 118 ft 2 kts 320°
2026-05-06 07:55 32.00468 34.87707 117 ft 2 kts 342°
2026-05-06 07:55 32.00467 34.87707 118 ft 0 kts 347°
2026-05-06 07:57 32.00507 34.87693 117 ft 10 kts 342°
2026-05-06 07:57 32.00578 34.87694 120 ft 11 kts 26°
2026-05-06 07:57 32.00631 34.87762 120 ft 13 kts 89°
2026-05-06 07:58 32.00594 34.87852 118 ft 10 kts 118°
2026-05-06 07:58 32.00596 34.87924 115 ft 11 kts 36°
2026-05-06 07:58 32.00698 34.87997 119 ft 26 kts 32°
2026-05-06 07:58 32.00859 34.88116 117 ft 30 kts 31°
2026-05-06 07:59 32.01055 34.88255 118 ft 34 kts 32°
2026-05-06 07:59 32.01241 34.88394 120 ft 27 kts 35°
2026-05-06 07:59 32.01383 34.88553 120 ft 29 kts 52°
2026-05-06 07:59 32.01478 34.88762 116 ft 29 kts 70°
2026-05-06 08:00 32.01512 34.88953 119 ft 22 kts 81°
2026-05-06 08:00 32.01536 34.89106 117 ft 15 kts 78°
2026-05-06 08:00 32.01603 34.89162 119 ft 13 kts 355°
2026-05-06 08:00 32.01700 34.89141 118 ft 15 kts 349°
2026-05-06 08:01 32.01749 34.89113 118 ft 6 kts 282°
2026-05-06 08:01 32.01741 34.89056 119 ft 9 kts 261°
2026-05-06 08:01 32.01694 34.88752 121 ft 71 kts 259°
2026-05-06 08:01 32.01571 34.87951 118 ft 125 kts 260°
2026-05-06 08:02 32.01383 34.86773 149 ft 163 kts 252°
2026-05-06 08:02 32.01138 34.85544 801 ft 155 kts 255°
2026-05-06 08:02 32.00890 34.84312 1403 ft 154 kts 257°
2026-05-06 08:02 32.00649 34.83075 1971 ft 155 kts 257°
2026-05-06 08:03 32.00401 34.81836 2478 ft 156 kts 257°
2026-05-06 08:03 32.00149 34.80590 2959 ft 157 kts 256°
2026-05-06 08:03 31.99893 34.79324 3397 ft 165 kts 257°
2026-05-06 08:03 31.99609 34.77924 3599 ft 187 kts 256°
2026-05-06 08:04 31.99297 34.76375 3864 ft 204 kts 258°
2026-05-06 08:04 31.99260 34.74629 4141 ft 226 kts 279°
2026-05-06 08:04 31.99770 34.72801 4484 ft 250 kts 289°
2026-05-06 08:04 32.00394 34.70837 5156 ft 259 kts 289°
2026-05-06 08:05 32.00963 34.68802 5957 ft 263 kts 285°
2026-05-06 08:05 32.01468 34.66714 6755 ft 266 kts 284°
2026-05-06 08:05 32.01942 34.64651 7518 ft 268 kts 284°
2026-05-06 08:05 32.02424 34.62517 8305 ft 271 kts 284°
2026-05-06 08:06 32.02910 34.60364 9089 ft 273 kts 284°
2026-05-06 08:06 32.03406 34.58197 9861 ft 275 kts 284°
2026-05-06 08:06 32.03910 34.56002 10439 ft 284 kts 284°
2026-05-06 08:06 32.04449 34.53660 10588 ft 307 kts 284°
2026-05-06 08:07 32.05030 34.51145 10717 ft 329 kts 284°
2026-05-06 08:07 32.05652 34.48461 10841 ft 350 kts 284°
2026-05-06 08:07 32.06300 34.45661 10954 ft 368 kts 284°
2026-05-06 08:07 32.06989 34.42695 11246 ft 380 kts 284°
2026-05-06 08:08 32.07691 34.39674 11790 ft 384 kts 284°
2026-05-06 08:08 32.08396 34.36628 12399 ft 386 kts 284°
2026-05-06 08:08 32.09103 34.33564 13020 ft 389 kts 284°
2026-05-06 08:08 32.09814 34.30480 13652 ft 391 kts 284°
2026-05-06 08:09 32.10528 34.27377 14220 ft 393 kts 284°
2026-05-06 08:09 32.11245 34.24260 14756 ft 395 kts 284°
2026-05-06 08:09 32.11952 34.21170 15282 ft 396 kts 284°
2026-05-06 08:09 32.12671 34.18027 15787 ft 398 kts 284°
2026-05-06 08:10 32.13393 34.14870 16287 ft 400 kts 284°
2026-05-06 08:10 32.14118 34.11699 16779 ft 401 kts 284°
2026-05-06 08:10 32.14845 34.08512 17264 ft 403 kts 284°
2026-05-06 08:10 32.15573 34.05310 17735 ft 405 kts 284°
2026-05-06 08:11 32.16302 34.02096 18204 ft 407 kts 284°
2026-05-06 08:11 32.17143 33.98906 18630 ft 409 kts 291°
2026-05-06 08:11 32.18336 33.95902 19021 ft 411 kts 295°
2026-05-06 08:11 32.19598 33.92871 19447 ft 412 kts 295°
2026-05-06 08:12 32.20859 33.89831 19852 ft 413 kts 295°
2026-05-06 08:12 32.22120 33.86783 20244 ft 414 kts 295°
2026-05-06 08:12 32.23381 33.83723 20616 ft 415 kts 295°
2026-05-06 08:12 32.24644 33.80651 20971 ft 416 kts 295°
2026-05-06 08:13 32.25912 33.77573 21289 ft 417 kts 295°
2026-05-06 08:13 32.27182 33.74484 21611 ft 418 kts 295°
2026-05-06 08:13 32.28437 33.71437 22016 ft 417 kts 295°
2026-05-06 08:13 32.29703 33.68363 22493 ft 415 kts 295°
2026-05-06 08:14 32.30962 33.65306 22984 ft 412 kts 295°
2026-05-06 08:14 32.32211 33.62268 23479 ft 410 kts 295°
2026-05-06 08:14 32.33451 33.59245 23934 ft 408 kts 294°
2026-05-06 08:14 32.34683 33.56233 24365 ft 406 kts 294°
2026-05-06 08:15 32.35910 33.53233 24772 ft 404 kts 294°
2026-05-06 08:15 32.37132 33.50244 25184 ft 403 kts 294°
2026-05-06 08:15 32.38351 33.47264 25603 ft 402 kts 294°
2026-05-06 08:15 32.39567 33.44296 26031 ft 400 kts 294°
2026-05-06 08:16 32.40760 33.41379 26467 ft 399 kts 294°
2026-05-06 08:16 32.41963 33.38426 26909 ft 397 kts 294°
2026-05-06 08:16 32.43160 33.35484 27361 ft 396 kts 293°
2026-05-06 08:16 32.44354 33.32554 27808 ft 395 kts 293°
2026-05-06 08:17 32.45543 33.29631 28259 ft 393 kts 293°
2026-05-06 08:17 32.46729 33.26720 28724 ft 392 kts 293°
2026-05-06 08:17 32.47908 33.23816 29189 ft 390 kts 293°
2026-05-06 08:17 32.49079 33.20927 29657 ft 389 kts 292°
2026-05-06 08:18 32.50231 33.18080 30126 ft 387 kts 292°
2026-05-06 08:18 32.51409 33.15173 30527 ft 386 kts 293°
2026-05-06 08:18 32.52555 33.12342 30894 ft 386 kts 293°
2026-05-06 08:18 32.53713 33.09478 31263 ft 385 kts 293°
2026-05-06 08:19 32.54870 33.06617 31628 ft 385 kts 293°
2026-05-06 08:19 32.56022 33.03761 31999 ft 384 kts 293°
2026-05-06 08:19 32.57174 33.00903 32375 ft 384 kts 293°
2026-05-06 08:19 32.58324 32.98053 32736 ft 383 kts 293°
2026-05-06 08:20 32.59473 32.95204 33121 ft 383 kts 293°
2026-05-06 08:20 32.60615 32.92358 33491 ft 382 kts 293°
2026-05-06 08:20 32.61756 32.89510 33858 ft 382 kts 293°
2026-05-06 08:20 32.62881 32.86705 34085 ft 383 kts 293°
2026-05-06 08:21 32.65212 32.80907 34119 ft 397 kts 293°
2026-05-06 08:21 32.67621 32.74907 34116 ft 406 kts 293°
2026-05-06 08:22 32.70053 32.68829 34114 ft 408 kts 293°
2026-05-06 08:22 32.72463 32.62778 34114 ft 408 kts 293°
2026-05-06 08:23 32.74895 32.56685 34113 ft 408 kts 293°
2026-05-06 08:23 32.77317 32.50581 34117 ft 409 kts 293°
2026-05-06 08:24 32.79740 32.44471 34117 ft 409 kts 293°
2026-05-06 08:24 32.82342 32.38464 34121 ft 411 kts 301°
2026-05-06 08:25 32.85579 32.32913 34485 ft 410 kts 302°
2026-05-06 08:25 32.87199 32.30128 34730 ft 409 kts 301°
2026-05-06 08:25 32.88815 32.27347 34962 ft 409 kts 301°
2026-05-06 08:26 32.90426 32.24563 35190 ft 408 kts 301°
2026-05-06 08:26 32.92032 32.21779 35412 ft 408 kts 301°
2026-05-06 08:26 32.93638 32.18992 35619 ft 408 kts 301°
2026-05-06 08:26 32.95241 32.16205 35831 ft 408 kts 301°
2026-05-06 08:27 32.96822 32.13453 36034 ft 408 kts 301°
2026-05-06 08:27 32.98426 32.10667 36105 ft 408 kts 301°
2026-05-06 08:27 33.01639 32.05092 36136 ft 408 kts 301°
2026-05-06 08:28 33.04837 31.99523 36119 ft 407 kts 301°
2026-05-06 08:28 33.08034 31.93962 36105 ft 407 kts 301°
2026-05-06 08:29 33.11202 31.88430 36107 ft 407 kts 301°
2026-05-06 08:29 33.14391 31.82856 36110 ft 407 kts 301°
2026-05-06 08:30 33.17582 31.77278 36125 ft 407 kts 301°
2026-05-06 08:30 33.20768 31.71692 36126 ft 407 kts 301°
2026-05-06 08:31 33.23926 31.66141 36125 ft 407 kts 301°
2026-05-06 08:31 33.27107 31.60548 36117 ft 407 kts 301°
2026-05-06 08:32 33.30280 31.54955 36116 ft 407 kts 301°
2026-05-06 08:32 33.33454 31.49355 36118 ft 407 kts 302°
2026-05-06 08:33 33.36605 31.43788 36110 ft 407 kts 301°
2026-05-06 08:33 33.39775 31.38180 36110 ft 407 kts 302°
2026-05-06 08:34 33.44529 31.29754 36115 ft 407 kts 301°
2026-05-06 08:35 33.47695 31.24132 36127 ft 408 kts 302°
2026-05-06 08:35 33.50852 31.18539 36116 ft 408 kts 302°
2026-05-06 08:36 33.54018 31.12892 36118 ft 408 kts 302°
2026-05-06 08:36 33.57187 31.07235 36115 ft 409 kts 302°
2026-05-06 08:37 33.60361 31.01572 36111 ft 409 kts 302°
2026-05-06 08:37 33.63527 30.95896 36116 ft 409 kts 302°
2026-05-06 08:38 33.66667 30.90250 36118 ft 410 kts 302°
2026-05-06 08:38 33.69839 30.84564 36117 ft 410 kts 302°
2026-05-06 08:39 33.73006 30.78872 36117 ft 410 kts 302°
2026-05-06 08:39 33.76154 30.73208 36119 ft 410 kts 302°
2026-05-06 08:40 33.79319 30.67495 36115 ft 411 kts 302°
2026-05-06 08:40 33.82482 30.61777 36116 ft 410 kts 302°
2026-05-06 08:41 33.85645 30.56065 36114 ft 410 kts 302°
2026-05-06 08:41 33.88809 30.50344 36115 ft 410 kts 302°
2026-05-06 08:42 33.91937 30.44659 36142 ft 410 kts 302°